FW4335 Weather Reports


Display with metric or nautical units.
time (UTC)temp
F
wind
direction
speed
MPH
gust
MPH
rain 1hr
in
rain 24hr
in
rain mn
in
humidity
%
barometer
mb
20260504231530 83 277 2.0 10.0 0.00 0.00 0.00 40 1010.1
20260504230036 82 304 1.0 5.0 0.00 0.00 0.00 42 1010.2
20260504223035 82 304 2.0 8.0 0.00 0.00 0.00 41 1010.5
20260504221536 82 300 2.0 9.0 0.00 0.00 0.00 41 1010.5
20260504220029 82 295 2.0 8.0 0.00 0.00 0.00 40 1010.7
20260504214531 83 295 2.0 8.0 0.00 0.00 0.00 40 1010.8
20260504213142 83 307 2.0 8.0 0.00 0.00 0.00 39 1010.9
20260504210032 82 331 1.0 8.0 0.00 0.00 0.00 40 1011.1
20260504204605 82 342 2.0 7.0 0.00 0.00 0.00 40 1011.3
20260504201534 82 3 3.0 9.0 0.00 0.00 0.00 39 1011.6
20260504200032 81 341 2.0 7.0 0.00 0.00 0.00 40 1011.7
20260504194643 82 346 2.0 9.0 0.00 0.00 0.00 40 1011.7
20260504193142 81 286 0.0 5.0 0.00 0.00 0.00 42 1011.9
20260504191529 79 102 3.0 8.0 0.00 0.00 0.00 43 1012.0
20260504190106 79 39 2.0 6.0 0.00 0.00 0.00 46 1012.2
20260504184536 78 5 1.0 5.0 0.00 0.00 0.00 48 1012.2
20260504183036 77 88 1.0 7.0 0.00 0.00 0.00 48 1012.4
20260504181534 77 124 2.0 8.0 0.00 0.00 0.00 49 1012.5
20260504180140 75 130 2.0 6.0 0.00 0.00 0.00 51 1012.5
20260504174531 74 110 2.0 7.0 0.00 0.00 0.00 52 1012.6
20260504173034 73 66 1.0 7.0 0.00 0.00 0.00 54 1012.7
20260504171606 73 73 1.0 4.0 0.00 0.00 0.00 54 1012.7
20260504081533 51 225 0.0 2.0 0.00 0.00 0.00 85 1012.2
20260504060148 56 247 0.0 2.0 0.00 0.00 0.00 77 1011.8
20260504050142 59 247 0.0 2.0 0.00 0.00 0.00 73 1011.6
20260504044531 60 247 0.0 1.0 0.00 0.00 0.00 72 1011.4
20260504043038 61 218 0.0 3.0 0.00 0.00 0.00 70 1011.2
20260504041534 62 218 0.0 3.0 0.00 0.00 0.00 66 1010.9
20260504040046 63 218 1.0 4.0 0.00 0.00 0.00 64 1010.8
20260504034531 65 202 0.0 2.0 0.00 0.00 0.00 61 1010.5
20260504033031 68 202 1.0 3.0 0.00 0.00 0.00 57 1010.3
20260504031531 70 205 1.0 2.0 0.00 0.00 0.00 54 1010.2
20260504030030 73 197 2.0 3.0 0.00 0.00 0.00 51 1010.0
20260504024531 77 192 1.0 3.0 0.00 0.00 0.00 43 1009.9
20260504023134 80 45 0.0 2.0 0.00 0.00 0.00 36 1009.8
20260504021532 81 45 0.0 1.0 0.00 0.00 0.00 33 1009.9
20260504020029 82 32 0.0 3.0 0.00 0.00 0.00 30 1010.1
20260504014532 83 37 1.0 5.0 0.00 0.00 0.00 31 1010.2
20260504013034 84 40 0.0 5.0 0.00 0.00 0.00 29 1010.3
20260504011537 85 46 1.0 4.0 0.00 0.00 0.00 28 1010.4
20260504010029 85 13 1.0 5.0 0.00 0.00 0.00 28 1010.6
20260504004610 86 12 0.0 3.0 0.00 0.00 0.00 28 1010.7
20260504003036 86 13 0.0 3.0 0.00 0.00 0.00 27 1010.8
20260504001607 86 43 0.0 6.0 0.00 0.00 0.00 25 1010.9
20260504000033 86 53 1.0 5.0 0.00 0.00 0.00 25 1011.1
20260503234534 88 71 2.0 7.0 0.00 0.00 0.00 24 1011.2
20260503233116 87 84 0.0 3.0 0.00 0.00 0.00 25 1011.5